Location: Warner Observatory
(35.1353°N, 89.5455°W)
Time: 00:12:43
(UTC-06:00)

Amateur Radio Satellites - All Passes

Search period start: 21 February 2017 23:42
Search period end: 22 February 2017 23:42
Location: Warner Observatory, 35.1353°N, 89.5455°W

Satellite Date Start Highest point End Downlink Frequencies (MHz)
Time Altitude Azimuth
ESTCUBE 1 21 Feb 23:54:09 23:56:48 15° 267° (W) 23:59:27 437.505/2401.250
SO-50 21 Feb 23:56:59 00:00:35 21° 309° (NW) 00:04:09 436.795
AIST 2D 21 Feb 23:59:02 00:02:00 25° 288° (WNW) 00:04:58 435.315
SRMSAT 22 Feb 00:01:55 00:02:52 10° 165° (SSE) 00:03:50 437.500
RS-15 22 Feb 00:04:01 00:11:48 18° 22° (NNE) 00:19:27 29.354- 29.394
BUGSAT 1 22 Feb 00:08:02 00:12:05 43° 99° (E) 00:16:07 437.445
DUCHIFAT 1 22 Feb 00:30:19 00:34:05 31° 288° (WNW) 00:37:49 145.980
EO-79 22 Feb 00:36:45 00:40:05 22° 290° (WNW) 00:43:24 145.935-145.965
VELOX 1 22 Feb 00:36:58 00:39:29 15° 266° (W) 00:42:00 145.980
DX 1 22 Feb 00:40:12 00:44:00 30° 262° (W) 00:47:48 434.975-435.025
FO-29 22 Feb 00:41:41 00:45:56 16° 303° (WNW) 00:50:02 435.910
POLYITAN 1 22 Feb 00:53:46 00:56:12 15° 293° (WNW) 00:58:38 437.675
JUGNU 22 Feb 00:55:44 00:59:29 17° 184° (S) 01:03:15 437.505
QB50P2 22 Feb 00:56:59 00:58:56 13° 294° (WNW) 01:00:52 145.880/145.840
NANOSAT C BR1 22 Feb 00:57:05 00:59:29 15° 293° (WNW) 01:01:54 145.865
UKube-1 22 Feb 01:00:38 01:04:09 25° 263° (W) 01:07:41 .
ITUPSAT 1 22 Feb 01:05:56 01:09:28 21° 67° (ENE) 01:13:02 437.325
Oscar 19 22 Feb 01:08:12 01:13:11 51° 100° (E) 01:18:09 437.125/150
BEESAT 22 Feb 01:14:46 01:18:42 26° 69° (ENE) 01:22:40 436.000
Gurwin Techsat 1B 22 Feb 01:21:37 01:26:32 37° 98° (E) 01:31:25 435.225
BUGSAT 1 22 Feb 01:44:54 01:47:02 14° 293° (WNW) 01:49:10 437.445
PCSat 22 Feb 01:47:16 01:52:26 43° 59° (ENE) 01:57:33 145.827
SRMSAT 22 Feb 01:47:33 01:51:17 17° 174° (S) 01:55:01 437.500
AO-7 22 Feb 02:05:02 02:09:51 16° 93° (E) 02:14:38 .
MOZHAYETS 4 22 Feb 02:10:00 02:14:08 32° 71° (ENE) 02:18:16
RS-15 22 Feb 02:16:19 02:28:17 52° 52° (NE) 02:39:41 29.354- 29.394
ITUPSAT 1 22 Feb 02:42:39 02:47:02 35° 262° (W) 02:51:27 437.325
JUGNU 22 Feb 02:45:45 02:47:45 12° 194° (SSW) 02:49:45 437.505
Oscar 19 22 Feb 02:48:54 02:52:02 17° 295° (WNW) 02:55:11 437.125/150
BEESAT 22 Feb 02:52:17 02:56:20 27° 263° (W) 03:00:26 436.000
CUBESAT XI-V 22 Feb 03:00:14 03:03:14 17° 67° (ENE) 03:06:13 437.345
Gurwin Techsat 1B 22 Feb 03:02:03 03:06:13 24° 293° (WNW) 03:10:23 435.225
KKS-1 22 Feb 03:09:07 03:13:08 36° 72° (ENE) 03:17:11 437.445
ITAMSAT 1 22 Feb 03:12:22 03:17:38 78° 104° (ESE) 03:22:51 435.822/435.867
PCSat 22 Feb 03:31:24 03:35:29 22° 254° (WSW) 03:39:33 145.827
SRMSAT 22 Feb 03:35:55 03:39:44 17° 185° (S) 03:43:33 437.500
MOZHAYETS 4 22 Feb 03:47:50 03:51:17 21° 265° (W) 03:54:45
STARS 22 Feb 03:53:43 03:57:55 50° 73° (ENE) 04:02:08 437.465
AO-7 22 Feb 03:55:03 04:03:24 85° 288° (WNW) 04:11:41 .
AO-85 22 Feb 03:58:51 04:02:45 26° 113° (ESE) 04:06:27 145.980
M-CUBED/EXP-1 PRIME 22 Feb 04:03:28 04:06:46 53° 71° (ENE) 04:09:58 437.505
RS-15 22 Feb 04:29:19 04:40:29 45° 253° (WSW) 04:51:13 29.354- 29.394
CUBESAT XI-V 22 Feb 04:35:49 04:40:15 41° 262° (W) 04:44:39 437.345
KKS-1 22 Feb 04:46:57 04:49:46 17° 266° (W) 04:52:37 437.445
DOVE 4 22 Feb 04:47:38 04:47:57 10° 92° (E) 04:48:16 437.250
ITAMSAT 1 22 Feb 04:54:40 04:56:22 12° 298° (WNW) 04:58:04 435.822/435.867
STRAND 1 22 Feb 05:10:14 05:11:45 11° 62° (ENE) 05:13:18 437.568
SRMSAT 22 Feb 05:26:19 05:28:09 11° 194° (SSW) 05:29:58 437.500
STARS 22 Feb 05:32:58 05:34:30 12° 268° (W) 05:36:01 437.465
CUTE-I 22 Feb 05:33:00 05:37:36 28° 97° (E) 05:42:11 437.470
XW-2F 22 Feb 05:35:52 05:39:11 28° 97° (E) 05:42:28 145.980 - 146.000
KAITUO 1B 22 Feb 05:37:34 05:40:42 24° 96° (E) 05:43:47 145.475/437.950
XW-2D 22 Feb 05:38:04 05:41:32 32° 97° (E) 05:44:58 145.860 - 145.880
AO-85 22 Feb 05:39:09 05:43:04 27° 305° (NW) 05:46:47 145.980
XW-2B 22 Feb 05:42:57 05:46:30 36° 98° (E) 05:50:01 145.730 - 145.750
BEESAT 3 22 Feb 05:46:54 05:49:21 16° 109° (ESE) 05:51:48 437.485
AO-7 22 Feb 05:50:07 05:54:58 17° 306° (NW) 05:59:48 .
XW-2C 22 Feb 05:51:17 05:55:00 48° 99° (E) 05:58:41 145.795 - 145.815
LilacSat-2 22 Feb 06:04:00 06:07:52 77° 101° (E) 06:11:41 437.200
NUDT-PHONESAT 22 Feb 06:16:33 06:20:20 88° 110° (ESE) 06:24:04 437.300
BEESAT 2 22 Feb 06:17:18 06:19:22 14° 109° (ESE) 06:21:27 435.950
DOVE 4 22 Feb 06:21:15 06:25:53 68° 284° (WNW) 06:30:49 437.250
HO-68 22 Feb 06:33:31 06:39:06 24° 95° (E) 06:44:40 435.675
STRAND 1 22 Feb 06:45:06 06:50:13 78° 258° (WSW) 06:55:22 437.568
CUTE 1.7 + AOD 2 22 Feb 06:49:34 06:52:57 23° 95° (E) 06:56:17 437.475
SO-50 22 Feb 06:50:52 06:53:40 16° 48° (NE) 06:56:26 436.795
XW-2A 22 Feb 06:54:41 06:57:59 40° 99° (E) 07:01:15 145.665 - 145.685
XW-2F 22 Feb 07:10:44 07:13:04 16° 291° (WNW) 07:15:24 145.980 - 146.000
KAITUO 1B 22 Feb 07:11:57 07:14:31 18° 290° (WNW) 07:17:03 145.475/437.950
CUTE-I 22 Feb 07:12:53 07:17:34 31° 291° (WNW) 07:22:14 437.470
XW-2D 22 Feb 07:13:22 07:15:24 14° 292° (WNW) 07:17:26 145.860 - 145.880
UWE-3 22 Feb 07:15:51 07:17:59 13° 91° (E) 07:20:06 435.000/436.395/437.385
XW-2B 22 Feb 07:18:37 07:20:20 13° 292° (WNW) 07:22:02 145.730 - 145.750
BEESAT 3 22 Feb 07:23:07 07:26:39 32° 305° (NW) 07:30:14 437.485
PRISM 22 Feb 07:30:16 07:30:53 10° 65° (ENE) 07:31:30 437.425
ZACube-1 22 Feb 07:44:41 07:47:26 16° 93° (E) 07:50:08 437.345
BEESAT 2 22 Feb 07:53:05 07:56:46 38° 303° (WNW) 08:00:31 435.950
SEEDS 22 Feb 07:53:14 07:57:25 89° 290° (WNW) 08:01:34 437.485
AAUSAT CUBESAT 2 22 Feb 07:53:37 07:57:29 40° 99° (E) 08:01:21 437.432
ISS 22 Feb 07:56:59 07:59:53 29° 131° (SE) 08:02:47 437.550
CUBEBUG 2 22 Feb 08:04:49 08:09:37 80° 102° (ESE) 08:14:20 437.445
UNISAT 6 22 Feb 08:08:23 08:10:10 12° 65° (ENE) 08:11:57 437.425
TIGRISAT 22 Feb 08:10:04 08:11:37 12° 64° (ENE) 08:13:12 435.000
HO-68 22 Feb 08:20:10 08:27:05 55° 290° (WNW) 08:33:59 435.675
CUTE 1.7 + AOD 2 22 Feb 08:25:17 08:28:40 24° 290° (WNW) 08:32:02 437.475
SO-50 22 Feb 08:30:03 08:34:25 52° 244° (WSW) 08:38:44 436.795
Tancredo 1 22 Feb 08:30:46 08:34:01 81° 137° (SE) 08:37:16 437.200
AO-73 22 Feb 08:33:55 08:38:23 53° 99° (E) 08:42:45 145.935
Oscar 11 22 Feb 08:45:17 08:49:35 62° 101° (E) 08:53:49 .
UWE-3 22 Feb 08:50:08 08:54:41 52° 286° (WNW) 08:59:09 435.000/436.395/437.385
PRISM 22 Feb 09:01:40 09:05:40 54° 259° (W) 09:09:40 437.425
FO-29 22 Feb 09:02:21 09:08:20 32° 65° (ENE) 09:14:50 435.910
ZACube-1 22 Feb 09:19:34 09:23:52 41° 287° (WNW) 09:28:04 437.345
O/OREOS (USA 219) 22 Feb 09:23:28 09:28:04 83° 251° (WSW) 09:32:39 437.305
AAUSAT CUBESAT 2 22 Feb 09:30:33 09:32:33 13° 293° (WNW) 09:34:33 437.432
ISS 22 Feb 09:33:36 09:36:20 24° 327° (NNW) 09:39:05 437.550
UNISAT 6 22 Feb 09:41:58 09:46:18 55° 260° (W) 09:50:46 437.425
TIGRISAT 22 Feb 09:43:22 09:47:42 58° 260° (W) 09:52:12 435.000
EO-79 22 Feb 09:51:37 09:53:38 13° 66° (ENE) 09:55:39 145.935-145.965
DELFI C3 22 Feb 09:58:05 10:01:55 53° 284° (WNW) 10:05:43 145.870
POLYITAN 1 22 Feb 10:06:45 10:09:52 20° 69° (ENE) 10:13:00 437.675
Tancredo 1 22 Feb 10:09:03 10:10:41 13° 333° (NNW) 10:12:18 437.200
QB50P2 22 Feb 10:09:18 10:12:38 23° 70° (ENE) 10:16:01 145.880/145.840
NANOSAT C BR1 22 Feb 10:09:42 10:12:45 20° 69° (ENE) 10:15:49 145.865
YUBILEINY 22 Feb 10:11:41 10:20:15 59° 91° (E) 10:28:50 435.215
AO-73 22 Feb 10:12:03 10:14:05 13° 294° (WNW) 10:16:07 145.935
ESTCUBE 1 22 Feb 10:13:49 10:14:53 11° 92° (E) 10:15:58 437.505/2401.250
Oscar 11 22 Feb 10:24:49 10:25:07 10° 295° (WNW) 10:25:25 .
AIST 2D 22 Feb 10:29:30 10:32:58 62° 77° (ENE) 10:36:31 435.315
FO-29 22 Feb 10:46:35 10:53:00 45° 263° (W) 11:00:08 435.910
BUGSAT 1 22 Feb 10:55:23 10:58:16 19° 69° (ENE) 11:01:11 437.445
DUCHIFAT 1 22 Feb 11:18:04 11:22:13 66° 259° (W) 11:26:25 145.980
EO-79 22 Feb 11:24:57 11:28:57 44° 261° (W) 11:33:01 145.935-145.965
SPROUT 22 Feb 11:26:46 11:29:51 19° 95° (E) 11:32:56 437.525
POLYITAN 1 22 Feb 11:41:50 11:45:26 28° 263° (W) 11:49:06 437.675
NANOSAT C BR1 22 Feb 11:44:38 11:48:15 28° 263° (W) 11:51:54 145.865
QB50P2 22 Feb 11:44:53 11:48:18 24° 264° (W) 11:51:45 145.880/145.840
ESTCUBE 1 22 Feb 11:47:36 11:51:59 56° 285° (WNW) 11:56:21 437.505/2401.250
YUBILEINY 22 Feb 12:10:22 12:17:28 27° 289° (WNW) 12:24:38 435.215
Oscar 19 22 Feb 12:21:44 12:26:44 54° 74° (ENE) 12:31:46 437.125/150
50 SAT 22 Feb 12:27:23 12:30:52 79° 283° (WNW) 12:34:19 437.505
VELOX 1 22 Feb 12:27:51 12:32:13 63° 285° (WNW) 12:36:34 145.980
BUGSAT 1 22 Feb 12:30:02 12:33:25 26° 263° (W) 12:36:53 437.445
DX 1 22 Feb 12:30:46 12:35:03 56° 101° (E) 12:39:19 434.975-435.025
Gurwin Techsat 1B 22 Feb 12:39:28 12:44:28 44° 71° (ENE) 12:49:28 435.225
UKube-1 22 Feb 12:49:46 12:54:03 67° 101° (E) 12:58:20 .
AO-7 22 Feb 13:01:01 13:06:36 20° 56° (NE) 13:12:10 .
SPROUT 22 Feb 13:01:59 13:05:46 30° 288° (WNW) 13:09:31 437.525
Oscar 19 22 Feb 14:03:30 14:06:20 15° 267° (W) 14:09:10 437.125/150
DX 1 22 Feb 14:09:21 14:10:42 11° 295° (WNW) 14:12:04 434.975-435.025
AO-85 22 Feb 14:12:35 14:16:29 80° 243° (WSW) 14:20:29 145.980
Gurwin Techsat 1B 22 Feb 14:20:47 14:24:33 20° 266° (W) 14:28:20 435.225
ITAMSAT 1 22 Feb 14:27:01 14:32:12 86° 76° (ENE) 14:37:27 435.822/435.867
ISS 22 Feb 14:28:00 14:29:39 13° 27° (NNE) 14:31:17 437.550
ITUPSAT 1 22 Feb 14:45:46 14:50:35 75° 102° (ESE) 14:55:20 437.325
AO-7 22 Feb 14:49:58 14:58:21 84° 254° (WSW) 15:06:46 .
BEESAT 22 Feb 14:54:37 14:59:26 85° 281° (WNW) 15:04:12 436.000
Tancredo 1 22 Feb 15:00:50 15:03:27 22° 33° (NNE) 15:06:03 437.200
BEESAT 3 22 Feb 15:42:25 15:46:18 46° 58° (ENE) 15:50:09 437.485
MOZHAYETS 4 22 Feb 15:44:36 15:49:12 68° 285° (WNW) 15:53:44
STARS 22 Feb 15:48:19 15:49:53 12° 93° (E) 15:51:27 437.465
ISS 22 Feb 16:03:12 16:06:29 83° 224° (SW) 16:09:44 437.550
BEESAT 2 22 Feb 16:13:28 16:17:19 41° 57° (ENE) 16:21:07 435.950
XW-2D 22 Feb 16:18:33 16:19:34 11° 67° (ENE) 16:20:34 145.860 - 145.880
XW-2B 22 Feb 16:22:57 16:24:30 12° 67° (ENE) 16:26:02 145.730 - 145.750
PCSat 22 Feb 16:25:13 16:30:36 77° 114° (ESE) 16:36:03 145.827
ITUPSAT 1 22 Feb 16:27:00 16:27:43 10° 297° (WNW) 16:28:25 437.325
XW-2C 22 Feb 16:30:36 16:32:55 16° 69° (ENE) 16:35:14 145.795 - 145.815
RS-15 22 Feb 16:35:06 16:45:51 44° 107° (ESE) 16:57:02 29.354- 29.394
CUBESAT XI-V 22 Feb 16:35:12 16:39:45 61° 100° (E) 16:44:16 437.345
Tancredo 1 22 Feb 16:36:54 16:39:45 29° 229° (SW) 16:42:34 437.200
KKS-1 22 Feb 16:39:01 16:43:28 70° 285° (WNW) 16:47:54 437.445
LilacSat-2 22 Feb 16:43:06 16:46:11 23° 71° (ENE) 16:49:18 437.200
AO-7 22 Feb 16:48:19 16:52:03 13° 269° (W) 16:55:47 .
CUTE-I 22 Feb 16:51:38 16:56:23 34° 70° (ENE) 17:01:10 437.470
NUDT-PHONESAT 22 Feb 16:53:15 16:56:16 23° 71° (ENE) 16:59:18 437.300
HO-68 22 Feb 17:01:44 17:04:55 13° 56° (NE) 17:08:05 435.675
M-CUBED/EXP-1 PRIME 22 Feb 17:18:01 17:21:46 73° 107° (ESE) 17:25:50 437.505
BEESAT 3 22 Feb 17:21:59 17:23:27 12° 252° (WSW) 17:24:55 437.485
STARS 22 Feb 17:22:11 17:26:28 51° 286° (WNW) 17:30:46 437.465
DOVE 4 22 Feb 17:23:55 17:28:04 82° 79° (E) 17:32:14 437.250
CUTE 1.7 + AOD 2 22 Feb 17:40:49 17:42:25 12° 66° (ENE) 17:44:00 437.475
XW-2F 22 Feb 17:46:53 17:50:36 51° 260° (W) 17:54:22 145.980 - 146.000
KAITUO 1B 22 Feb 17:47:24 17:51:09 61° 259° (W) 17:54:57 145.475/437.950
XW-2D 22 Feb 17:49:39 17:53:18 44° 261° (W) 17:57:01 145.860 - 145.880
BEESAT 2 22 Feb 17:52:38 17:54:41 14° 252° (WSW) 17:56:46 435.950
XW-2B 22 Feb 17:54:42 17:58:17 39° 262° (W) 18:01:55 145.730 - 145.750
XW-2C 22 Feb 18:03:27 18:06:49 30° 263° (W) 18:10:15 145.795 - 145.815
PCSat 22 Feb 18:11:36 18:14:36 15° 312° (NW) 18:17:36 145.827
CUBESAT XI-V 22 Feb 18:15:03 18:16:33 11° 295° (WNW) 18:18:03 437.345
LilacSat-2 22 Feb 18:17:32 18:20:23 20° 265° (W) 18:23:15 437.200
NUDT-PHONESAT 22 Feb 18:27:30 18:30:08 18° 265° (W) 18:32:47 437.300
CUTE-I 22 Feb 18:32:05 18:36:25 25° 264° (W) 18:40:47 437.470
AAUSAT CUBESAT 2 22 Feb 18:41:17 18:44:10 18° 69° (ENE) 18:47:02 437.432
SEEDS 22 Feb 18:41:27 18:45:24 39° 73° (ENE) 18:49:21 437.485
HO-68 22 Feb 18:44:20 18:51:31 81° 73° (ENE) 18:58:43 435.675
RS-15 22 Feb 18:46:28 18:58:02 54° 308° (NW) 19:10:05 29.354- 29.394
XW-2A 22 Feb 18:55:23 18:58:35 41° 261° (W) 19:01:50 145.665 - 145.685
STRAND 1 22 Feb 18:58:57 19:03:55 47° 99° (E) 19:08:51 437.568
CUBEBUG 2 22 Feb 18:59:35 19:03:41 42° 73° (ENE) 19:07:56 437.445
CUTE 1.7 + AOD 2 22 Feb 19:13:35 19:17:44 51° 260° (W) 19:21:56 437.475
AO-73 22 Feb 19:26:16 19:29:59 27° 71° (ENE) 19:33:47 145.935
Oscar 11 22 Feb 19:36:53 19:40:43 31° 72° (ENE) 19:44:33 .
UWE-3 22 Feb 19:43:14 19:47:36 84° 78° (ENE) 19:52:09 435.000/436.395/437.385
ZACube-1 22 Feb 20:11:16 20:15:39 80° 258° (WSW) 20:20:11 437.345
AAUSAT CUBESAT 2 22 Feb 20:15:43 20:19:23 29° 263° (W) 20:23:03 437.432
SEEDS 22 Feb 20:18:59 20:21:12 14° 267° (W) 20:23:27 437.485
YUBILEINY 22 Feb 20:26:56 20:33:37 24° 70° (ENE) 20:40:15 435.215
HO-68 22 Feb 20:36:01 20:39:52 15° 268° (W) 20:43:43 435.675
CUBEBUG 2 22 Feb 20:38:11 20:40:31 14° 268° (W) 20:42:53 437.445
STRAND 1 22 Feb 20:39:14 20:42:40 18° 295° (WNW) 20:46:07 437.568
DELFI C3 22 Feb 20:39:58 20:43:49 50° 75° (ENE) 20:47:39 145.870
PRISM 22 Feb 20:46:31 20:49:50 24° 97° (E) 20:53:08 437.425
AO-73 22 Feb 21:02:42 21:06:09 22° 265° (W) 21:09:41 145.935
RS-15 22 Feb 21:06:36 21:14:25 18° 337° (NNW) 21:22:20 29.354- 29.394
JUGNU 22 Feb 21:06:52 21:07:50 10° 165° (SSE) 21:08:49 437.505
Oscar 11 22 Feb 21:13:46 21:16:50 19° 266° (W) 21:19:56 .
UNISAT 6 22 Feb 21:36:45 21:41:11 39° 98° (E) 21:45:31 437.425
TIGRISAT 22 Feb 21:38:02 21:42:25 37° 98° (E) 21:46:43 435.000
O/OREOS (USA 219) 22 Feb 21:55:09 21:57:55 16° 100° (E) 22:00:42 437.305
FO-29 22 Feb 22:00:04 22:07:01 38° 95° (E) 22:13:21 435.910
PRISM 22 Feb 22:21:51 22:24:58 22° 290° (WNW) 22:28:05 437.425
YUBILEINY 22 Feb 22:22:25 22:31:00 65° 268° (W) 22:39:31 435.215
SO-50 22 Feb 22:40:34 22:45:16 77° 301° (WNW) 22:49:55 436.795
ESTCUBE 1 22 Feb 22:43:22 22:47:53 87° 77° (ENE) 22:52:26 437.505/2401.250
JUGNU 22 Feb 22:52:27 22:56:04 17° 175° (S) 22:59:42 437.505
50 SAT 22 Feb 22:58:51 23:01:35 22° 72° (ENE) 23:04:20 437.505
DUCHIFAT 1 22 Feb 23:05:41 23:09:09 24° 96° (E) 23:12:37 145.980
EO-79 22 Feb 23:12:39 23:16:36 35° 98° (E) 23:20:32 145.935-145.965
UNISAT 6 22 Feb 23:14:20 23:17:32 18° 293° (WNW) 23:20:41 437.425
TIGRISAT 22 Feb 23:15:29 23:18:45 19° 292° (WNW) 23:22:01 435.000
VELOX 1 22 Feb 23:21:30 23:25:52 75° 75° (ENE) 23:30:14 145.980
DX 1 22 Feb 23:23:14 23:27:03 32° 71° (ENE) 23:30:54 434.975-435.025
RS-15 22 Feb 23:27:38 23:34:24 16° 15° (NNE) 23:41:06 29.354- 29.394
POLYITAN 1 22 Feb 23:29:01 23:33:16 57° 100° (E) 23:37:28 437.675
AIST 2D 22 Feb 23:30:54 23:34:26 63° 283° (WNW) 23:37:55 435.315
NANOSAT C BR1 22 Feb 23:31:18 23:35:31 55° 100° (E) 23:39:41 145.865
QB50P2 22 Feb 23:31:50 23:36:07 68° 101° (ESE) 23:40:22 145.880/145.840
O/OREOS (USA 219) 22 Feb 23:32:49 23:36:57 37° 295° (WNW) 23:41:08 437.305
